Starlink 30471

operational
NORAD ID: 57932 Int'l Des: 2023-147 Owner: SPXS Country: US Constellation: starlink
LEOCIRCULAR

Starlink 30471について

説明を読み込み中...

リアルタイム位置

3D地球を読み込み中...

次回通過

高度履歴

Altitude vs Time

uPlot chart will show altitude changes over time

軌道要素

1 57932U 23147V 25353.85878379 .00000828 00000-0 76362-4 0 9992
2 57932 43.0033 39.4616 0001730 280.1565 79.9083 15.02534800124582
Epoch: Dec 19, 2025 • Age: 8 hours

現在のステータス

高度 562.6 km
速度 7.58 km/s
衛星直下点 39.35°N, 8.72°W
打ち上げ日 Sep 24, 2023
運用期間 2.2 years
タイプ internet

技術仕様

分類 Payload
質量 730.00 kg
乾燥質量 700.00 kg
総質量 730.00 kg
長さ 0.30 m
直径 4.10 m
スパン 29.00 m
形状 Box + pan
製造者 SPXS
バスタイプ Starlink V2M
フェーズステータス In Orbit
所有者/国 SPXS/US

大規模コンステレーション

Loading constellations...